Location: Poughquag
(41.6090°N, 73.6820°W)
Time: 04:26:45
(UTC-04:00)

ITUPSAT 1 - Pass Details

Date: 25 June 2024
Orbit: 695 x 705 km, 98.5° (Epoch: 24 July)

Event Time Altitude Azimuth Distance (km) Brightness Sun altitude
Rises 23:58:32 0° 2° (N) 3,107 ? -23.6°
Reaches altitude 10° 00:01:01 10° 352° (N) 2,184 ? -23.7°
Maximum altitude 00:05:07 29° 293° (WNW) 1,275 ? -23.9°
Enters shadow 00:07:35 19° 247° (WSW) 1,657 ? -24.0°
